START_TIME,STEP,MOV.,P11,t_acc.,P23,t_acc.,P27,t_acc.,A4,t_acc.
1979-07-16 06:00:23.280 ,0,1,1.,4.8,0.,4.8,0.,4.8,0.,4.8
1979-07-16 06:00:28.080 ,0,1,1.,4.8,0.,4.8,0.,4.8,0.,4.8
1979-07-16 06:00:32.880 ,0,1,1.,4.8,0.,4.8,0.,4.8,0.,4.8
1979-07-16 06:00:37.680 ,0,1,0.,4.8,0.,4.8,0.,4.8,0.,4.8
1979-07-16 06:00:42.480 ,0,1,2.,4.8,0.,4.8,0.,4.8,0.,4.8
1979-07-16 06:00:47.280 ,4,1,0.,4.8,0.,4.8,0.,4.8,0.,4.8
1979-07-16 06:00:52.080 ,4,1,1.,4.8,0.,4.8,0.,4.8,0.,4.8
1979-07-16 06:00:56.880 ,4,1,0.,4.8,0.,4.8,0.,4.8,1.,4.8
1979-07-16 06:01:01.680 ,4,1,3.,4.8,0.,4.8,0.,4.8,0.,4.8
1979-07-16 06:01:06.480 ,4,1,0.,4.8,0.,4.8,0.,4.8,0.,4.8
1979-07-16 06:01:11.280 ,7,1,0.,4.8,0.,4.8,0.,4.8,0.,4.8
1979-07-16 06:01:16.080 ,7,1,2.,4.8,0.,4.8,0.,4.8,0.,4.8
1979-07-16 06:01:20.880 ,7,1,0.,4.8,0.,4.8,0.,4.8,0.,4.8
1979-07-16 06:01:25.680 ,7,1,1.,4.8,0.,4.8,0.,4.8,0.,4.8
1979-07-16 06:01:30.480 ,7,1,0.,4.8,0.,4.8,0.,4.8,0.,4.8
1979-07-16 06:01:35.280 ,3,1,2.,4.8,0.,4.8,0.,4.8,0.,4.8
1979-07-16 06:01:40.080 ,3,1,1.,4.8,0.,4.8,0.,4.8,1.,4.8
1979-07-16 06:01:44.880 ,3,1,1.,4.8,0.,4.8,0.,4.8,0.,4.8
1979-07-16 06:01:49.680 ,3,1,1.,4.8,0.,4.8,0.,4.8,0.,4.8
1979-07-16 06:01:54.480 ,3,1,1.,4.8,0.,4.8,0.,4.8,0.,4.8
1979-07-16 06:01:59.280 ,0,1,0.,4.8,0.,4.8,0.,4.8,0.,4.8
1979-07-16 06:02:04.080 ,0,1,0.,4.8,0.,4.8,0.,4.8,0.,4.8
1979-07-16 06:02:08.880 ,0,1,1.,4.8,0.,4.8,0.,4.8,0.,4.8
1979-07-16 06:02:13.680 ,0,1,0.,4.8,0.,4.8,0.,4.8,0.,4.8
1979-07-16 06:02:18.480 ,0,1,0.,4.8,0.,4.8,0.,4.8,0.,4.8
1979-07-16 06:02:23.280 ,4,1,0.,4.8,0.,4.8,0.,4.8,0.,4.8
1979-07-16 06:02:28.080 ,4,1,1.,4.8,0.,4.8,0.,4.8,0.,4.8
1979-07-16 06:02:32.880 ,4,1,0.,4.8,0.,4.8,0.,4.8,0.,4.8
1979-07-16 06:02:37.680 ,4,1,1.,4.8,0.,4.8,0.,4.8,0.,4.8
1979-07-16 06:02:42.480 ,4,1,0.,4.8,0.,4.8,0.,4.8,1.,4.8
1979-07-16 06:02:47.280 ,7,1,1.,4.8,0.,4.8,0.,4.8,0.,4.8
1979-07-16 06:02:52.080 ,7,1,0.,4.8,0.,4.8,0.,4.8,0.,4.8
1979-07-16 06:02:56.880 ,7,1,2.,4.8,0.,4.8,0.,4.8,0.,4.8
1979-07-16 06:03:01.680 ,7,1,2.,4.8,0.,4.8,0.,4.8,0.,4.8
1979-07-16 06:03:06.480 ,7,1,0.,4.8,0.,4.8,0.,4.8,0.,4.8
1979-07-16 06:03:11.280 ,3,1,3.,4.8,0.,4.8,0.,4.8,0.,4.8
1979-07-16 06:03:16.080 ,3,1,3.,4.8,0.,4.8,0.,4.8,0.,4.8
1979-07-16 06:03:20.880 ,3,1,1.,4.8,0.,4.8,0.,4.8,0.,4.8
1979-07-16 06:03:25.680 ,3,1,1.,4.8,0.,4.8,0.,4.8,0.,4.8
1979-07-16 06:03:30.480 ,3,1,2.,4.8,0.,4.8,0.,4.8,0.,4.8
1979-07-16 06:03:35.280 ,0,1,4.,4.8,0.,4.8,0.,4.8,0.,4.8
1979-07-16 06:03:40.080 ,0,1,1.,4.8,0.,4.8,0.,4.8,0.,4.8
1979-07-16 06:03:44.880 ,0,1,0.,4.8,0.,4.8,0.,4.8,0.,4.8
1979-07-16 06:03:49.680 ,0,1,1.,4.8,0.,4.8,0.,4.8,1.,4.8
1979-07-16 06:03:54.480 ,0,1,0.,4.8,0.,4.8,0.,4.8,0.,4.8
1979-07-16 06:03:59.280 ,4,1,1.,4.8,0.,4.8,0.,4.8,0.,4.8
1979-07-16 06:04:04.080 ,4,1,2.,4.8,0.,4.8,0.,4.8,0.,4.8
1979-07-16 06:04:08.880 ,4,1,1.,4.8,0.,4.8,0.,4.8,0.,4.8
1979-07-16 06:04:13.680 ,4,1,2.,4.8,0.,4.8,0.,4.8,1.,4.8
1979-07-16 06:04:18.480 ,4,1,1.,4.8,0.,4.8,0.,4.8,0.,4.8
1979-07-16 06:04:23.280 ,7,1,0.,4.8,0.,4.8,0.,4.8,0.,4.8
1979-07-16 06:04:28.080 ,7,1,1.,4.8,0.,4.8,0.,4.8,0.,4.8
1979-07-16 06:04:32.880 ,7,1,0.,4.8,0.,4.8,0.,4.8,0.,4.8
1979-07-16 06:04:37.680 ,7,1,0.,4.8,0.,4.8,0.,4.8,0.,4.8
1979-07-16 06:04:42.480 ,7,1,1.,4.8,0.,4.8,0.,4.8,0.,4.8
1979-07-16 06:04:47.280 ,3,1,1.,4.8,0.,4.8,0.,4.8,0.,4.8
1979-07-16 06:04:52.080 ,3,1,3.,4.8,0.,4.8,0.,4.8,1.,4.8
1979-07-16 06:04:56.880 ,3,1,2.,4.8,0.,4.8,0.,4.8,0.,4.8
1979-07-16 06:05:01.680 ,3,1,2.,4.8,0.,4.8,0.,4.8,0.,4.8
1979-07-16 06:05:06.480 ,3,1,1.,4.8,0.,4.8,0.,4.8,0.,4.8
1979-07-16 06:05:11.280 ,0,1,0.,4.8,0.,4.8,0.,4.8,0.,4.8
1979-07-16 06:05:16.080 ,0,1,0.,4.8,0.,4.8,0.,4.8,0.,4.8
1979-07-16 06:05:20.880 ,0,1,2.,4.8,0.,4.8,0.,4.8,0.,4.8
1979-07-16 06:05:25.680 ,0,1,0.,4.8,0.,4.8,0.,4.8,0.,4.8
1979-07-16 06:05:30.480 ,0,1,0.,4.8,0.,4.8,0.,4.8,0.,4.8
1979-07-16 06:05:35.280 ,0,0,2.,4.8,0.,4.8,0.,4.8,0.,4.8
1979-07-16 06:05:40.080 ,0,0,1.,4.8,0.,4.8,0.,4.8,0.,4.8
1979-07-16 06:05:44.880 ,0,0,1.,4.8,0.,4.8,0.,4.8,0.,4.8
1979-07-16 06:05:49.680 ,0,0,1.,4.8,0.,4.8,0.,4.8,0.,4.8
1979-07-16 06:05:54.480 ,0,0,0.,4.8,0.,4.8,0.,4.8,0.,4.8
1979-07-16 06:05:59.280 ,0,0,2.,4.8,0.,4.8,0.,4.8,0.,4.8
1979-07-16 06:06:04.080 ,0,0,0.,4.8,0.,4.8,0.,4.8,0.,4.8
1979-07-16 06:06:08.880 ,0,0,2.,4.8,0.,4.8,0.,4.8,0.,4.8
1979-07-16 06:06:13.680 ,0,0,0.,4.8,0.,4.8,0.,4.8,0.,4.8
1979-07-16 06:06:18.480 ,0,0,0.,4.8,0.,4.8,0.,4.8,0.,4.8
1979-07-16 06:06:23.280 ,5,0,0.,4.8,0.,4.8,0.,4.8,0.,4.8
1979-07-16 06:06:28.080 ,5,0,4.,4.8,0.,4.8,0.,4.8,0.,4.8
1979-07-16 06:06:32.880 ,5,0,4.,4.8,0.,4.8,0.,4.8,0.,4.8
1979-07-16 06:06:37.680 ,5,0,2.,4.8,0.,4.8,0.,4.8,0.,4.8
1979-07-16 06:06:42.480 ,5,0,0.,4.8,0.,4.8,0.,4.8,1.,4.8
1979-07-16 06:06:47.280 ,5,0,0.,4.8,0.,4.8,0.,4.8,0.,4.8
1979-07-16 06:06:52.080 ,5,0,1.,4.8,0.,4.8,0.,4.8,0.,4.8
1979-07-16 06:06:56.880 ,5,0,1.,4.8,0.,4.8,0.,4.8,0.,4.8
1979-07-16 06:07:01.680 ,5,0,2.,4.8,0.,4.8,0.,4.8,0.,4.8
1979-07-16 06:07:06.480 ,5,0,0.,4.8,0.,4.8,0.,4.8,1.,4.8
1979-07-16 06:07:11.280 ,4,0,1.,4.8,0.,4.8,0.,4.8,1.,4.8
1979-07-16 06:07:16.080 ,4,0,0.,4.8,0.,4.8,0.,4.8,0.,4.8
1979-07-16 06:07:20.880 ,4,0,2.,4.8,0.,4.8,0.,4.8,0.,4.8
1979-07-16 06:07:25.680 ,4,0,2.,4.8,0.,4.8,0.,4.8,0.,4.8
1979-07-16 06:07:30.480 ,4,0,0.,4.8,0.,4.8,0.,4.8,0.,4.8
1979-07-16 06:07:35.280 ,4,0,1.,4.8,0.,4.8,0.,4.8,1.,4.8
1979-07-16 06:07:40.080 ,4,0,1.,4.8,0.,4.8,0.,4.8,0.,4.8
1979-07-16 06:07:44.880 ,4,0,2.,4.8,0.,4.8,0.,4.8,0.,4.8
1979-07-16 06:07:49.680 ,4,0,2.,4.8,0.,4.8,0.,4.8,0.,4.8
1979-07-16 06:07:54.480 ,4,0,1.,4.8,0.,4.8,0.,4.8,0.,4.8
1979-07-16 06:07:59.280 ,3,0,1.,4.8,0.,4.8,0.,4.8,0.,4.8
1979-07-16 06:08:04.080 ,3,0,0.,4.8,0.,4.8,0.,4.8,0.,4.8
1979-07-16 06:08:08.880 ,3,0,3.,4.8,0.,4.8,0.,4.8,0.,4.8
1979-07-16 06:08:13.680 ,3,0,0.,4.8,0.,4.8,0.,4.8,0.,4.8
1979-07-16 06:08:18.480 ,3,0,1.,4.8,0.,4.8,0.,4.8,0.,4.8
1979-07-16 06:08:23.280 ,3,0,0.,4.8,0.,4.8,0.,4.8,0.,4.8
1979-07-16 06:08:28.080 ,3,0,0.,4.8,0.,4.8,0.,4.8,0.,4.8
1979-07-16 06:08:32.880 ,3,0,0.,4.8,0.,4.8,0.,4.8,0.,4.8
1979-07-16 06:08:37.680 ,3,0,1.,4.8,0.,4.8,0.,4.8,0.,4.8
1979-07-16 06:08:42.480 ,3,0,0.,4.8,0.,4.8,0.,4.8,0.,4.8
1979-07-16 06:08:47.280 ,2,0,1.,4.8,0.,4.8,0.,4.8,0.,4.8
1979-07-16 06:08:52.080 ,2,0,2.,4.8,0.,4.8,0.,4.8,0.,4.8
1979-07-16 06:08:56.880 ,2,0,0.,4.8,0.,4.8,0.,4.8,0.,4.8
1979-07-16 06:09:01.680 ,2,0,1.,4.8,0.,4.8,0.,4.8,0.,4.8
1979-07-16 06:09:06.480 ,2,0,1.,4.8,0.,4.8,0.,4.8,0.,4.8
1979-07-16 06:09:11.280 ,2,0,0.,4.8,0.,4.8,0.,4.8,0.,4.8
1979-07-16 06:09:16.080 ,2,0,1.,4.8,0.,4.8,0.,4.8,0.,4.8
1979-07-16 06:09:20.880 ,2,0,0.,4.8,0.,4.8,0.,4.8,0.,4.8
1979-07-16 06:09:25.680 ,2,0,1.,4.8,0.,4.8,0.,4.8,0.,4.8
1979-07-16 06:09:30.480 ,2,0,0.,4.8,0.,4.8,0.,4.8,1.,4.8
1979-07-16 06:09:35.280 ,1,0,0.,4.8,0.,4.8,0.,4.8,1.,4.8
1979-07-16 06:09:40.080 ,1,0,1.,4.8,0.,4.8,0.,4.8,0.,4.8
1979-07-16 06:09:44.880 ,1,0,0.,4.8,0.,4.8,0.,4.8,0.,4.8
1979-07-16 06:09:49.680 ,1,0,0.,4.8,0.,4.8,0.,4.8,0.,4.8
1979-07-16 06:09:54.480 ,1,0,0.,4.8,0.,4.8,0.,4.8,1.,4.8
1979-07-16 06:09:59.280 ,1,0,2.,4.8,0.,4.8,0.,4.8,0.,4.8
1979-07-16 06:10:04.080 ,1,0,2.,4.8,0.,4.8,0.,4.8,0.,4.8
1979-07-16 06:10:08.880 ,1,0,2.,4.8,0.,4.8,0.,4.8,1.,4.8
1979-07-16 06:10:13.680 ,1,0,4.,4.8,0.,4.8,0.,4.8,0.,4.8
1979-07-16 06:10:18.480 ,1,0,0.,4.8,0.,4.8,0.,4.8,0.,4.8
1979-07-16 06:10:23.280 ,0,0,2.,4.8,0.,4.8,0.,4.8,1.,4.8
1979-07-16 06:10:28.080 ,0,0,0.,4.8,0.,4.8,0.,4.8,0.,4.8
1979-07-16 06:10:32.880 ,0,0,2.,4.8,0.,4.8,0.,4.8,0.,4.8
1979-07-16 06:10:37.680 ,0,0,1.,4.8,0.,4.8,0.,4.8,0.,4.8
1979-07-16 06:10:42.480 ,0,0,0.,4.8,0.,4.8,0.,4.8,0.,4.8
1979-07-16 06:10:47.280 ,0,0,1.,4.8,0.,4.8,0.,4.8,0.,4.8
1979-07-16 06:10:52.080 ,0,0,0.,4.8,0.,4.8,0.,4.8,0.,4.8
1979-07-16 06:10:56.880 ,0,0,1.,4.8,0.,4.8,0.,4.8,0.,4.8
1979-07-16 06:11:01.680 ,0,0,1.,4.8,0.,4.8,0.,4.8,0.,4.8
1979-07-16 06:11:06.480 ,0,0,1.,4.8,0.,4.8,0.,4.8,0.,4.8
1979-07-16 06:11:11.280 ,0,0,0.,4.8,0.,4.8,0.,4.8,0.,4.8
1979-07-16 06:11:16.080 ,0,0,2.,4.8,0.,4.8,0.,4.8,0.,4.8
1979-07-16 06:11:20.880 ,0,0,0.,4.8,0.,4.8,0.,4.8,0.,4.8
1979-07-16 06:11:25.680 ,0,0,0.,4.8,0.,4.8,0.,4.8,0.,4.8
1979-07-16 06:11:30.480 ,0,0,1.,4.8,0.,4.8,0.,4.8,0.,4.8
1979-07-16 06:11:35.280 ,0,0,1.,4.8,0.,4.8,0.,4.8,0.,4.8
1979-07-16 06:11:40.080 ,0,0,3.,4.8,0.,4.8,0.,4.8,0.,4.8
1979-07-16 06:11:44.880 ,0,0,1.,4.8,0.,4.8,0.,4.8,1.,4.8
1979-07-16 06:11:49.680 ,0,0,3.,4.8,0.,4.8,0.,4.8,0.,4.8
1979-07-16 06:11:54.480 ,0,0,0.,4.8,0.,4.8,0.,4.8,0.,4.8
1979-07-16 06:11:59.280 ,1,0,0.,4.8,0.,4.8,0.,4.8,0.,4.8
1979-07-16 06:12:04.080 ,1,0,0.,4.8,0.,4.8,0.,4.8,0.,4.8
1979-07-16 06:12:08.880 ,1,0,2.,4.8,0.,4.8,0.,4.8,0.,4.8
1979-07-16 06:12:13.680 ,1,0,2.,4.8,0.,4.8,0.,4.8,0.,4.8
1979-07-16 06:12:18.480 ,1,0,0.,4.8,0.,4.8,0.,4.8,0.,4.8
1979-07-16 06:12:23.280 ,1,0,3.,4.8,0.,4.8,0.,4.8,0.,4.8
1979-07-16 06:12:28.080 ,1,0,2.,4.8,0.,4.8,0.,4.8,0.,4.8
1979-07-16 06:12:32.880 ,1,0,2.,4.8,0.,4.8,0.,4.8,0.,4.8
1979-07-16 06:12:37.680 ,1,0,2.,4.8,0.,4.8,0.,4.8,0.,4.8
1979-07-16 06:12:42.480 ,1,0,0.,4.8,0.,4.8,0.,4.8,0.,4.8
1979-07-16 06:12:47.280 ,2,0,0.,4.8,0.,4.8,0.,4.8,0.,4.8
1979-07-16 06:12:52.080 ,2,0,0.,4.8,0.,4.8,0.,4.8,0.,4.8
1979-07-16 06:12:56.880 ,2,0,2.,4.8,0.,4.8,0.,4.8,0.,4.8
1979-07-16 06:13:01.680 ,2,0,0.,4.8,0.,4.8,0.,4.8,0.,4.8
1979-07-16 06:13:06.480 ,2,0,0.,4.8,0.,4.8,0.,4.8,0.,4.8
1979-07-16 06:13:11.280 ,2,0,1.,4.8,0.,4.8,0.,4.8,0.,4.8
1979-07-16 06:13:16.080 ,2,0,0.,4.8,0.,4.8,0.,4.8,0.,4.8
1979-07-16 06:13:20.880 ,2,0,0.,4.8,0.,4.8,0.,4.8,0.,4.8
1979-07-16 06:13:25.680 ,2,0,0.,4.8,0.,4.8,0.,4.8,0.,4.8
1979-07-16 06:13:30.480 ,2,0,0.,4.8,0.,4.8,0.,4.8,0.,4.8
1979-07-16 06:13:35.280 ,3,0,0.,4.8,0.,4.8,0.,4.8,0.,4.8
1979-07-16 06:13:40.080 ,3,0,0.,4.8,0.,4.8,0.,4.8,0.,4.8
1979-07-16 06:13:44.880 ,3,0,1.,4.8,0.,4.8,0.,4.8,0.,4.8
1979-07-16 06:13:49.680 ,3,0,0.,4.8,0.,4.8,0.,4.8,0.,4.8
1979-07-16 06:13:54.480 ,3,0,2.,4.8,0.,4.8,0.,4.8,0.,4.8
1979-07-16 06:13:59.280 ,3,0,3.,4.8,0.,4.8,0.,4.8,0.,4.8
1979-07-16 06:14:04.080 ,3,0,1.,4.8,0.,4.8,0.,4.8,0.,4.8
1979-07-16 06:14:08.880 ,3,0,0.,4.8,0.,4.8,0.,4.8,0.,4.8
1979-07-16 06:14:13.680 ,3,0,2.,4.8,0.,4.8,0.,4.8,0.,4.8
1979-07-16 06:14:18.480 ,3,0,1.,4.8,0.,4.8,0.,4.8,0.,4.8
1979-07-16 06:14:23.280 ,4,0,0.,4.8,0.,4.8,0.,4.8,1.,4.8
1979-07-16 06:14:28.080 ,4,0,1.,4.8,0.,4.8,0.,4.8,0.,4.8
1979-07-16 06:14:32.880 ,4,0,1.,4.8,0.,4.8,0.,4.8,0.,4.8
1979-07-16 06:14:37.680 ,4,0,1.,4.8,0.,4.8,0.,4.8,0.,4.8
1979-07-16 06:14:42.480 ,4,0,0.,4.8,0.,4.8,0.,4.8,0.,4.8
1979-07-16 06:14:47.280 ,4,0,0.,4.8,0.,4.8,0.,4.8,0.,4.8
1979-07-16 06:14:52.080 ,4,0,0.,4.8,0.,4.8,0.,4.8,0.,4.8
1979-07-16 06:14:56.880 ,4,0,0.,4.8,0.,4.8,0.,4.8,0.,4.8
1979-07-16 06:15:01.680 ,4,0,0.,4.8,0.,4.8,0.,4.8,0.,4.8
1979-07-16 06:15:06.480 ,4,0,0.,4.8,0.,4.8,0.,4.8,0.,4.8
1979-07-16 06:15:11.280 ,5,0,1.,4.8,0.,4.8,0.,4.8,0.,4.8
1979-07-16 06:15:16.080 ,5,0,0.,4.8,0.,4.8,0.,4.8,0.,4.8
1979-07-16 06:15:20.880 ,5,0,0.,4.8,0.,4.8,0.,4.8,0.,4.8
1979-07-16 06:15:25.680 ,5,0,0.,4.8,0.,4.8,0.,4.8,1.,4.8
1979-07-16 06:15:30.480 ,5,0,1.,4.8,0.,4.8,0.,4.8,0.,4.8
1979-07-16 06:15:35.280 ,5,0,2.,4.8,0.,4.8,0.,4.8,0.,4.8
1979-07-16 06:15:40.080 ,5,0,0.,4.8,0.,4.8,0.,4.8,1.,4.8
1979-07-16 06:15:44.880 ,5,0,0.,4.8,0.,4.8,0.,4.8,0.,4.8
1979-07-16 06:15:49.680 ,5,0,1.,4.8,0.,4.8,0.,4.8,0.,4.8
1979-07-16 06:15:54.480 ,5,0,1.,4.8,0.,4.8,0.,4.8,0.,4.8
1979-07-16 06:15:59.280 ,6,0,3.,4.8,0.,4.8,0.,4.8,0.,4.8
1979-07-16 06:16:04.080 ,6,0,0.,4.8,0.,4.8,0.,4.8,1.,4.8
1979-07-16 06:16:08.880 ,6,0,0.,4.8,0.,4.8,0.,4.8,0.,4.8
1979-07-16 06:16:13.680 ,6,0,1.,4.8,0.,4.8,0.,4.8,0.,4.8
1979-07-16 06:16:18.480 ,6,0,1.,4.8,0.,4.8,0.,4.8,0.,4.8
1979-07-16 06:16:23.280 ,6,0,2.,4.8,0.,4.8,0.,4.8,0.,4.8
1979-07-16 06:16:28.080 ,6,0,1.,4.8,0.,4.8,0.,4.8,0.,4.8
1979-07-16 06:16:32.880 ,6,0,1.,4.8,0.,4.8,0.,4.8,0.,4.8
1979-07-16 06:16:37.680 ,6,0,1.,4.8,0.,4.8,0.,4.8,0.,4.8
1979-07-16 06:16:42.480 ,6,0,1.,4.8,0.,4.8,0.,4.8,0.,4.8
1979-07-16 06:16:47.280 ,7,0,0.,4.8,0.,4.8,0.,4.8,0.,4.8
1979-07-16 06:16:52.080 ,7,0,0.,4.8,0.,4.8,0.,4.8,0.,4.8
1979-07-16 06:16:56.880 ,7,0,0.,4.8,0.,4.8,0.,4.8,0.,4.8
1979-07-16 06:17:01.680 ,7,0,0.,4.8,0.,4.8,0.,4.8,0.,4.8
1979-07-16 06:17:06.480 ,7,0,0.,4.8,0.,4.8,0.,4.8,0.,4.8
1979-07-16 06:17:11.280 ,7,0,1.,4.8,0.,4.8,0.,4.8,0.,4.8
1979-07-16 06:17:16.080 ,7,0,1.,4.8,0.,4.8,0.,4.8,0.,4.8
1979-07-16 06:17:20.880 ,7,0,0.,4.8,0.,4.8,0.,4.8,0.,4.8
1979-07-16 06:17:25.680 ,7,0,1.,4.8,0.,4.8,0.,4.8,0.,4.8
1979-07-16 06:17:30.480 ,7,0,1.,4.8,0.,4.8,0.,4.8,0.,4.8
1979-07-16 06:17:35.280 ,7,0,0.,4.8,0.,4.8,0.,4.8,0.,4.8
1979-07-16 06:17:40.080 ,7,0,0.,4.8,0.,4.8,0.,4.8,0.,4.8
1979-07-16 06:17:44.880 ,7,0,1.,4.8,0.,4.8,0.,4.8,0.,4.8
1979-07-16 06:17:49.680 ,7,0,0.,4.8,0.,4.8,0.,4.8,0.,4.8
1979-07-16 06:17:54.480 ,7,0,0.,4.8,0.,4.8,0.,4.8,0.,4.8
1979-07-16 06:17:59.280 ,7,0,0.,4.8,0.,4.8,0.,4.8,0.,4.8
1979-07-16 06:18:04.080 ,7,0,1.,4.8,0.,4.8,0.,4.8,0.,4.8
1979-07-16 06:18:08.880 ,7,0,0.,4.8,0.,4.8,0.,4.8,0.,4.8
1979-07-16 06:18:13.680 ,7,0,0.,4.8,0.,4.8,0.,4.8,0.,4.8
1979-07-16 06:18:18.480 ,7,0,0.,4.8,0.,4.8,0.,4.8,0.,4.8
1979-07-16 06:18:23.280 ,6,0,1.,4.8,0.,4.8,0.,4.8,0.,4.8
1979-07-16 06:18:28.080 ,6,0,0.,4.8,0.,4.8,0.,4.8,0.,4.8
1979-07-16 06:18:32.880 ,6,0,0.,4.8,0.,4.8,0.,4.8,0.,4.8
1979-07-16 06:18:37.680 ,6,0,1.,4.8,0.,4.8,0.,4.8,0.,4.8
1979-07-16 06:18:42.480 ,6,0,1.,4.8,0.,4.8,0.,4.8,0.,4.8
1979-07-16 06:18:47.280 ,6,0,1.,4.8,0.,4.8,0.,4.8,0.,4.8
1979-07-16 06:18:52.080 ,6,0,1.,4.8,0.,4.8,0.,4.8,0.,4.8
1979-07-16 06:18:56.880 ,6,0,0.,4.8,0.,4.8,0.,4.8,0.,4.8
1979-07-16 06:19:01.680 ,6,0,0.,4.8,0.,4.8,0.,4.8,0.,4.8
1979-07-16 06:19:06.480 ,6,0,1.,4.8,0.,4.8,0.,4.8,1.,4.8
1979-07-16 06:19:11.280 ,5,0,0.,4.8,0.,4.8,0.,4.8,0.,4.8
1979-07-16 06:19:16.080 ,5,0,1.,4.8,0.,4.8,0.,4.8,0.,4.8
1979-07-16 06:19:20.880 ,5,0,0.,4.8,0.,4.8,0.,4.8,0.,4.8
1979-07-16 06:19:25.680 ,5,0,1.,4.8,0.,4.8,0.,4.8,1.,4.8
1979-07-16 06:19:30.480 ,5,0,1.,4.8,0.,4.8,0.,4.8,1.,4.8
1979-07-16 06:19:35.280 ,5,0,0.,4.8,0.,4.8,0.,4.8,0.,4.8
1979-07-16 06:19:40.080 ,5,0,2.,4.8,0.,4.8,0.,4.8,0.,4.8
1979-07-16 06:19:44.880 ,5,0,0.,4.8,0.,4.8,0.,4.8,0.,4.8
1979-07-16 06:19:49.680 ,5,0,2.,4.8,0.,4.8,0.,4.8,0.,4.8
1979-07-16 06:19:54.480 ,5,0,0.,4.8,0.,4.8,0.,4.8,0.,4.8
1979-07-16 06:19:59.280 ,4,0,0.,4.8,0.,4.8,0.,4.8,0.,4.8
1979-07-16 06:20:04.080 ,4,0,0.,4.8,0.,4.8,0.,4.8,0.,4.8
1979-07-16 06:20:08.880 ,4,0,1.,4.8,0.,4.8,0.,4.8,0.,4.8
1979-07-16 06:20:13.680 ,4,0,2.,4.8,0.,4.8,0.,4.8,0.,4.8
1979-07-16 06:20:18.480 ,4,0,0.,4.8,0.,4.8,0.,4.8,0.,4.8
1979-07-16 06:20:23.280 ,4,0,1.,4.8,0.,4.8,0.,4.8,0.,4.8
1979-07-16 06:20:28.080 ,4,0,0.,4.8,0.,4.8,0.,4.8,0.,4.8
1979-07-16 06:20:32.880 ,4,0,2.,4.8,0.,4.8,0.,4.8,0.,4.8
1979-07-16 06:20:37.680 ,4,0,2.,4.8,0.,4.8,0.,4.8,0.,4.8
1979-07-16 06:20:42.480 ,4,0,1.,4.8,0.,4.8,0.,4.8,1.,4.8
1979-07-16 06:20:47.280 ,3,0,0.,4.8,0.,4.8,0.,4.8,2.,4.8
1979-07-16 06:20:52.080 ,3,0,0.,4.8,0.,4.8,0.,4.8,0.,4.8
1979-07-16 06:20:56.880 ,3,0,2.,4.8,0.,4.8,0.,4.8,0.,4.8
1979-07-16 06:21:01.680 ,3,0,2.,4.8,0.,4.8,0.,4.8,0.,4.8
1979-07-16 06:21:06.480 ,3,0,1.,4.8,0.,4.8,0.,4.8,0.,4.8
1979-07-16 06:21:11.280 ,3,0,2.,4.8,0.,4.8,0.,4.8,0.,4.8
1979-07-16 06:21:16.080 ,3,0,0.,4.8,0.,4.8,0.,4.8,0.,4.8
1979-07-16 06:21:20.880 ,3,0,0.,4.8,0.,4.8,0.,4.8,0.,4.8
1979-07-16 06:21:25.680 ,3,0,1.,4.8,0.,4.8,0.,4.8,0.,4.8
1979-07-16 06:21:30.480 ,3,0,1.,4.8,0.,4.8,0.,4.8,0.,4.8
1979-07-16 06:21:35.280 ,2,0,2.,4.8,0.,4.8,0.,4.8,0.,4.8
1979-07-16 06:21:40.080 ,2,0,2.,4.8,0.,4.8,0.,4.8,0.,4.8
1979-07-16 06:21:44.880 ,2,0,2.,4.8,0.,4.8,0.,4.8,0.,4.8
1979-07-16 06:21:49.680 ,2,0,1.,4.8,0.,4.8,0.,4.8,0.,4.8
1979-07-16 06:21:54.480 ,2,0,1.,4.8,0.,4.8,0.,4.8,1.,4.8
1979-07-16 06:21:59.280 ,2,0,2.,4.8,0.,4.8,0.,4.8,1.,4.8
1979-07-16 06:22:04.080 ,2,0,1.,4.8,0.,4.8,0.,4.8,0.,4.8
1979-07-16 06:22:08.880 ,2,0,2.,4.8,0.,4.8,0.,4.8,0.,4.8
1979-07-16 06:22:13.680 ,2,0,1.,4.8,0.,4.8,0.,4.8,0.,4.8
1979-07-16 06:22:18.480 ,2,0,0.,4.8,0.,4.8,0.,4.8,0.,4.8
1979-07-16 06:22:23.280 ,1,0,1.,4.8,0.,4.8,0.,4.8,0.,4.8
1979-07-16 06:22:28.080 ,1,0,2.,4.8,0.,4.8,0.,4.8,0.,4.8
1979-07-16 06:22:32.880 ,1,0,2.,4.8,0.,4.8,0.,4.8,0.,4.8
1979-07-16 06:22:37.680 ,1,0,2.,4.8,0.,4.8,0.,4.8,0.,4.8
1979-07-16 06:22:42.480 ,1,0,0.,4.8,0.,4.8,0.,4.8,0.,4.8
1979-07-16 06:22:47.280 ,1,0,1.,4.8,0.,4.8,0.,4.8,0.,4.8
1979-07-16 06:22:52.080 ,1,0,1.,4.8,0.,4.8,0.,4.8,0.,4.8
1979-07-16 06:22:56.880 ,1,0,1.,4.8,0.,4.8,0.,4.8,0.,4.8
1979-07-16 06:23:01.680 ,1,0,1.,4.8,0.,4.8,0.,4.8,0.,4.8
1979-07-16 06:23:06.480 ,1,0,1.,4.8,0.,4.8,0.,4.8,0.,4.8
1979-07-16 06:23:11.280 ,0,0,1.,4.8,0.,4.8,0.,4.8,0.,4.8
1979-07-16 06:23:16.080 ,0,0,0.,4.8,0.,4.8,0.,4.8,0.,4.8
1979-07-16 06:23:20.880 ,0,0,1.,4.8,0.,4.8,0.,4.8,0.,4.8
1979-07-16 06:23:25.680 ,0,0,0.,4.8,0.,4.8,0.,4.8,0.,4.8
1979-07-16 06:23:30.480 ,0,0,0.,4.8,0.,4.8,0.,4.8,0.,4.8
1979-07-16 06:23:35.280 ,0,0,0.,4.8,0.,4.8,0.,4.8,0.,4.8
1979-07-16 06:23:40.080 ,0,0,0.,4.8,0.,4.8,0.,4.8,1.,4.8
1979-07-16 06:23:44.880 ,0,0,2.,4.8,0.,4.8,0.,4.8,0.,4.8
1979-07-16 06:23:49.680 ,0,0,0.,4.8,0.,4.8,0.,4.8,0.,4.8
1979-07-16 06:23:54.480 ,0,0,1.,4.8,0.,4.8,0.,4.8,0.,4.8
1979-07-16 06:23:59.280 ,0,0,0.,4.8,0.,4.8,0.,4.8,0.,4.8
1979-07-16 06:24:04.080 ,0,0,0.,4.8,0.,4.8,0.,4.8,0.,4.8
1979-07-16 06:24:08.880 ,0,0,3.,4.8,0.,4.8,0.,4.8,0.,4.8
1979-07-16 06:24:13.680 ,0,0,1.,4.8,0.,4.8,0.,4.8,0.,4.8
1979-07-16 06:24:18.480 ,0,0,0.,4.8,0.,4.8,0.,4.8,0.,4.8
1979-07-16 06:24:23.280 ,0,0,1.,4.8,0.,4.8,0.,4.8,1.,4.8
1979-07-16 06:24:28.080 ,0,0,0.,4.8,0.,4.8,0.,4.8,0.,4.8
1979-07-16 06:24:32.880 ,0,0,0.,4.8,0.,4.8,0.,4.8,1.,4.8
1979-07-16 06:24:37.680 ,0,0,1.,4.8,0.,4.8,0.,4.8,0.,4.8
1979-07-16 06:24:42.480 ,0,0,3.,4.8,0.,4.8,0.,4.8,0.,4.8
1979-07-16 06:24:47.280 ,1,0,0.,4.8,0.,4.8,0.,4.8,0.,4.8
1979-07-16 06:24:52.080 ,1,0,0.,4.8,0.,4.8,0.,4.8,1.,4.8
1979-07-16 06:24:56.880 ,1,0,0.,4.8,0.,4.8,0.,4.8,1.,4.8
1979-07-16 06:25:01.680 ,1,0,3.,4.8,0.,4.8,0.,4.8,0.,4.8
1979-07-16 06:25:06.480 ,1,0,2.,4.8,0.,4.8,0.,4.8,0.,4.8
1979-07-16 06:25:11.280 ,1,0,4.,4.8,0.,4.8,0.,4.8,0.,4.8
1979-07-16 06:25:16.080 ,1,0,2.,4.8,0.,4.8,0.,4.8,0.,4.8
1979-07-16 06:25:20.880 ,1,0,1.,4.8,0.,4.8,0.,4.8,0.,4.8
1979-07-16 06:25:25.680 ,1,0,0.,4.8,0.,4.8,0.,4.8,0.,4.8
1979-07-16 06:25:30.480 ,1,0,0.,4.8,0.,4.8,0.,4.8,0.,4.8
1979-07-16 06:25:35.280 ,2,0,2.,4.8,0.,4.8,0.,4.8,0.,4.8
1979-07-16 06:25:40.080 ,2,0,0.,4.8,0.,4.8,0.,4.8,0.,4.8
1979-07-16 06:25:44.880 ,2,0,1.,4.8,0.,4.8,0.,4.8,0.,4.8
1979-07-16 06:25:49.680 ,2,0,2.,4.8,0.,4.8,0.,4.8,0.,4.8
1979-07-16 06:25:54.480 ,2,0,0.,4.8,0.,4.8,0.,4.8,0.,4.8
1979-07-16 06:25:59.280 ,2,0,1.,4.8,0.,4.8,0.,4.8,0.,4.8
1979-07-16 06:26:04.080 ,2,0,1.,4.8,0.,4.8,0.,4.8,0.,4.8
1979-07-16 06:26:08.880 ,2,0,1.,4.8,0.,4.8,0.,4.8,1.,4.8
1979-07-16 06:26:13.680 ,2,0,0.,4.8,0.,4.8,0.,4.8,0.,4.8
1979-07-16 06:26:18.480 ,2,0,1.,4.8,0.,4.8,0.,4.8,0.,4.8
1979-07-16 06:26:23.280 ,3,0,3.,4.8,0.,4.8,0.,4.8,0.,4.8
1979-07-16 06:26:28.080 ,3,0,2.,4.8,0.,4.8,0.,4.8,0.,4.8
1979-07-16 06:26:32.880 ,3,0,0.,4.8,0.,4.8,0.,4.8,0.,4.8
1979-07-16 06:26:37.680 ,3,0,1.,4.8,0.,4.8,0.,4.8,0.,4.8
1979-07-16 06:26:42.480 ,3,0,1.,4.8,0.,4.8,0.,4.8,0.,4.8
1979-07-16 06:26:47.280 ,3,0,1.,4.8,0.,4.8,0.,4.8,0.,4.8
1979-07-16 06:26:52.080 ,3,0,2.,4.8,0.,4.8,0.,4.8,0.,4.8
1979-07-16 06:26:56.880 ,3,0,0.,4.8,0.,4.8,0.,4.8,0.,4.8
1979-07-16 06:27:01.680 ,3,0,2.,4.8,0.,4.8,0.,4.8,0.,4.8
1979-07-16 06:27:06.480 ,3,0,0.,4.8,0.,4.8,0.,4.8,0.,4.8
1979-07-16 06:27:11.280 ,4,0,1.,4.8,0.,4.8,0.,4.8,0.,4.8
1979-07-16 06:27:16.080 ,4,0,2.,4.8,0.,4.8,0.,4.8,0.,4.8
1979-07-16 06:27:20.880 ,4,0,1.,4.8,0.,4.8,0.,4.8,0.,4.8
1979-07-16 06:27:25.680 ,4,0,1.,4.8,0.,4.8,0.,4.8,0.,4.8
1979-07-16 06:27:30.480 ,4,0,0.,4.8,0.,4.8,0.,4.8,0.,4.8
1979-07-16 06:27:35.280 ,4,0,1.,4.8,0.,4.8,0.,4.8,0.,4.8
1979-07-16 06:27:40.080 ,4,0,2.,4.8,0.,4.8,0.,4.8,0.,4.8
1979-07-16 06:27:44.880 ,4,0,1.,4.8,0.,4.8,0.,4.8,0.,4.8
1979-07-16 06:27:49.680 ,4,0,0.,4.8,0.,4.8,0.,4.8,0.,4.8
1979-07-16 06:27:54.480 ,4,0,1.,4.8,0.,4.8,0.,4.8,0.,4.8
1979-07-16 06:27:59.280 ,5,0,1.,4.8,0.,4.8,0.,4.8,0.,4.8
1979-07-16 06:28:04.080 ,5,0,1.,4.8,0.,4.8,0.,4.8,0.,4.8
1979-07-16 06:28:08.880 ,5,0,2.,4.8,0.,4.8,0.,4.8,0.,4.8
1979-07-16 06:28:13.680 ,5,0,1.,4.8,0.,4.8,0.,4.8,1.,4.8
1979-07-16 06:28:18.480 ,5,0,0.,4.8,0.,4.8,0.,4.8,0.,4.8
1979-07-16 06:28:23.280 ,5,0,0.,4.8,0.,4.8,0.,4.8,2.,4.8
1979-07-16 06:28:28.080 ,5,0,1.,4.8,0.,4.8,0.,4.8,0.,4.8
1979-07-16 06:28:32.880 ,5,0,3.,4.8,0.,4.8,0.,4.8,0.,4.8
1979-07-16 06:28:37.680 ,5,0,0.,4.8,0.,4.8,0.,4.8,0.,4.8
1979-07-16 06:28:42.480 ,5,0,0.,4.8,0.,4.8,0.,4.8,0.,4.8
1979-07-16 06:28:47.280 ,6,0,2.,4.8,0.,4.8,0.,4.8,0.,4.8
1979-07-16 06:28:52.080 ,6,0,0.,4.8,0.,4.8,0.,4.8,0.,4.8
1979-07-16 06:28:56.880 ,6,0,2.,4.8,0.,4.8,0.,4.8,0.,4.8
1979-07-16 06:29:01.680 ,6,0,1.,4.8,0.,4.8,0.,4.8,0.,4.8
1979-07-16 06:29:06.480 ,6,0,2.,4.8,0.,4.8,0.,4.8,0.,4.8
1979-07-16 06:29:11.280 ,6,0,2.,4.8,0.,4.8,0.,4.8,0.,4.8
1979-07-16 06:29:16.080 ,6,0,1.,4.8,0.,4.8,0.,4.8,0.,4.8
1979-07-16 06:29:20.880 ,6,0,0.,4.8,0.,4.8,0.,4.8,0.,4.8
1979-07-16 06:29:25.680 ,6,0,0.,4.8,0.,4.8,0.,4.8,0.,4.8
1979-07-16 06:29:30.480 ,6,0,1.,4.8,0.,4.8,0.,4.8,0.,4.8
1979-07-16 06:29:35.280 ,7,0,1.,4.8,0.,4.8,0.,4.8,1.,4.8
1979-07-16 06:29:40.080 ,7,0,1.,4.8,0.,4.8,0.,4.8,0.,4.8
1979-07-16 06:29:44.880 ,7,0,0.,4.8,0.,4.8,0.,4.8,0.,4.8
1979-07-16 06:29:49.680 ,7,0,0.,4.8,0.,4.8,0.,4.8,0.,4.8
1979-07-16 06:29:54.480 ,7,0,0.,4.8,0.,4.8,0.,4.8,0.,4.8
1979-07-16 06:29:59.280 ,7,0,0.,4.8,0.,4.8,0.,4.8,0.,4.8
1979-07-16 06:30:04.080 ,7,0,0.,4.8,0.,4.8,0.,4.8,0.,4.8
1979-07-16 06:30:08.880 ,7,0,0.,4.8,0.,4.8,0.,4.8,0.,4.8
1979-07-16 06:30:13.680 ,7,0,0.,4.8,0.,4.8,0.,4.8,0.,4.8
1979-07-16 06:30:18.480 ,7,0,0.,4.8,0.,4.8,0.,4.8,0.,4.8
1979-07-16 06:30:23.280 ,7,0,2.,4.8,0.,4.8,0.,4.8,0.,4.8
1979-07-16 06:30:28.080 ,7,0,1.,4.8,0.,4.8,0.,4.8,0.,4.8
1979-07-16 06:30:32.880 ,7,0,0.,4.8,0.,4.8,0.,4.8,0.,4.8
1979-07-16 06:30:37.680 ,7,0,0.,4.8,0.,4.8,0.,4.8,0.,4.8
1979-07-16 06:30:42.480 ,7,0,0.,4.8,0.,4.8,0.,4.8,0.,4.8
1979-07-16 06:30:47.280 ,7,0,2.,4.8,0.,4.8,0.,4.8,0.,4.8
1979-07-16 06:30:52.080 ,7,0,1.,4.8,0.,4.8,0.,4.8,0.,4.8
1979-07-16 06:30:56.880 ,7,0,1.,4.8,0.,4.8,0.,4.8,0.,4.8
1979-07-16 06:31:01.680 ,7,0,0.,4.8,0.,4.8,0.,4.8,0.,4.8
1979-07-16 06:31:06.480 ,7,0,0.,4.8,0.,4.8,0.,4.8,0.,4.8
1979-07-16 06:31:11.280 ,6,0,0.,4.8,0.,4.8,0.,4.8,0.,4.8
1979-07-16 06:31:16.080 ,6,0,0.,4.8,0.,4.8,0.,4.8,0.,4.8
1979-07-16 06:31:20.880 ,6,0,3.,4.8,0.,4.8,0.,4.8,0.,4.8
1979-07-16 06:31:25.680 ,6,0,0.,4.8,0.,4.8,0.,4.8,0.,4.8
1979-07-16 06:31:30.480 ,6,0,1.,4.8,0.,4.8,0.,4.8,0.,4.8
1979-07-16 06:31:35.280 ,6,0,0.,4.8,0.,4.8,0.,4.8,0.,4.8
1979-07-16 06:31:40.080 ,6,0,1.,4.8,0.,4.8,0.,4.8,0.,4.8
1979-07-16 06:31:44.880 ,6,0,1.,4.8,0.,4.8,0.,4.8,0.,4.8
1979-07-16 06:31:49.680 ,6,0,2.,4.8,0.,4.8,0.,4.8,0.,4.8
1979-07-16 06:31:54.480 ,6,0,0.,4.8,0.,4.8,0.,4.8,1.,4.8
1979-07-16 06:31:59.280 ,5,0,1.,4.8,0.,4.8,0.,4.8,0.,4.8
1979-07-16 06:32:04.080 ,5,0,1.,4.8,0.,4.8,0.,4.8,0.,4.8
1979-07-16 06:32:08.880 ,5,0,0.,4.8,0.,4.8,0.,4.8,0.,4.8
1979-07-16 06:32:13.680 ,5,0,1.,4.8,0.,4.8,0.,4.8,0.,4.8
1979-07-16 06:32:18.480 ,5,0,1.,4.8,0.,4.8,0.,4.8,1.,4.8
1979-07-16 06:32:23.280 ,5,0,0.,4.8,0.,4.8,0.,4.8,0.,4.8
1979-07-16 06:32:28.080 ,5,0,6.,4.8,0.,4.8,0.,4.8,0.,4.8
1979-07-16 06:32:32.880 ,5,0,2.,4.8,0.,4.8,0.,4.8,0.,4.8
1979-07-16 06:32:37.680 ,5,0,0.,4.8,0.,4.8,0.,4.8,0.,4.8
1979-07-16 06:32:42.480 ,5,0,2.,4.8,0.,4.8,0.,4.8,0.,4.8
1979-07-16 06:32:47.280 ,4,0,1.,4.8,0.,4.8,0.,4.8,0.,4.8
1979-07-16 06:32:52.080 ,4,0,2.,4.8,0.,4.8,0.,4.8,0.,4.8
1979-07-16 06:32:56.880 ,4,0,0.,4.8,0.,4.8,0.,4.8,0.,4.8
1979-07-16 06:33:01.680 ,4,0,1.,4.8,0.,4.8,0.,4.8,0.,4.8
1979-07-16 06:33:06.480 ,4,0,3.,4.8,0.,4.8,0.,4.8,0.,4.8
1979-07-16 06:33:11.280 ,4,0,1.,4.8,0.,4.8,0.,4.8,1.,4.8
1979-07-16 06:33:16.080 ,4,0,0.,4.8,0.,4.8,0.,4.8,0.,4.8